Hourly Data Report for June 06, 2017

ATIKOKAN (AUT)
ONTARIO

48°45'40.000" N
91°37'41.000" W
389.30 m
6020LPQ
71747
WCH

Download Data

Hourly Data (June 2017)
Hourly Data Report for June 6, 2017
TIME
LST
Temp Definition
°C
Dew Point Definition
°C
Rel Hum Definition
%
Precip. Amount Definition
mm

Wind Dir Definition
10's deg

Wind Spd Definition
km/h
Visibility Definition
km
Stn Press Definition
kPa
Hmdx Definition


Wind Chill Definition


Weather Definition


00:00 9.0 7.1 88 0.0   0   97.38     LegendNANA
01:00 8.2 7.0 92 0.0 7 1   97.40     LegendNANA
02:00 7.4 6.4 94 0.0 7 1   97.42     LegendNANA
03:00 6.3 5.5 94 0.0 0 1   97.44     LegendNANA
04:00 5.8 5.0 95 0.0 0 1   97.44     LegendNANA
05:00 6.3 5.6 96 0.0   0   97.50     LegendNANA
06:00 10.9 7.6 80 0.0 0 1   97.55     LegendNANA
07:00 15.5 8.4 63 0.0 8 1   97.55     LegendNANA
08:00 18.5 6.6 46 0.0 0 1   97.54     LegendNANA
09:00 21.5 5.6 35 0.0 19 2   97.50     LegendNANA
10:00 22.0 3.4 30 0.0 29 6   97.47     LegendNANA
11:00 23.6 5.0 30 0.0 9 4   97.42     LegendNANA
12:00 23.5 2.9 26 0.0 21 8   97.39     LegendNANA
13:00 24.1 3.7 27 0.0 26 8   97.33     LegendNANA
14:00 25.1 3.0 24 0.0 20 8   97.29     LegendNANA
15:00 25.7 3.8 24 0.0 16 5   97.23 25   LegendNANA
16:00 25.6 4.4 25 0.0 21 7   97.20 25   LegendNANA
17:00 25.5 3.0 23 0.0 20 8   97.17     LegendNANA
18:00 25.1 2.0 22 0.0 22 7   97.16     LegendNANA
19:00 23.3 5.2 31 0.0 21 3   97.16     LegendNANA
20:00 16.5 5.8 49 0.0 5 1   97.17     LegendNANA
21:00 13.9 9.7 76 0.0 0 1   97.21     LegendNANA
22:00 12.3 8.5 78 0.0 5 2   97.23     LegendNANA
23:00 10.9 7.8 82 0.0 0 1   97.23     LegendNANA

Notes on Data Quality.

Legend

  • E = Estimated
  • M = Missing
  • NA = Not Available*
  • [empty] = Indicates an unobserved value
Date modified: